Location: Peebles
(55.6412°N, 3.1714°W)
Time: 22:57:30
(UTC+00:00)

deb Agena D - Pass Details

Date: 29 September 2023
Orbit: 794 x 979 km, 99.8° (Epoch: 29 November)

Event Time Altitude Azimuth Distance (km) Brightness Sun altitude
Rises 23:19:28 0° 27° (NNE) 3,689 9.9 -33.0°
Reaches altitude 10° 23:23:46 10° 56° (NE) 2,717 8.8 -33.3°
Enters shadow 23:23:50 10° 56° (ENE) 2,708 8.8 -33.3°
